Weather History for Pittsfield, IL

Change the Weather History Date:

Sunday, December 9, 2012

  Actual Average (KUIN) Record (KUIN)
Temperature  
Mean Temperature 39 °F 31 °F  
Max Temperature 46 °F 39 °F 71 °F (1940)
Min Temperature 31 °F 24 °F -8 °F (1917)
Degree Days  
Heating Degree Days 26 34  
Month to date heating degree days 288  
Since 1 July heating degree days 1388  
Cooling Degree Days 0 0  
Month to date cooling degree days 0  
Year to date cooling degree days 1094  
Moisture  
Dew Point 39 °F    
Average Humidity 90    
Maximum Humidity 97    
Minimum Humidity 78    
Precipitation  
Precipitation 0.04 in 0.08 in 1.01 in (2003)
Month to date precipitation 0.77  
Year to date precipitation 35.85  
Sea Level Pressure  
Sea Level Pressure 29.86 in    
Wind  
Wind Speed 8 mph (WNW)    
Max Wind Speed 15 mph    
Max Gust Speed 22 mph    
Visibility 5 miles    
Events Fog , Rain    
T = Trace of Precipitation, MM = Missing Value Source: NWS Daily Summary

Daily Weather History Graph

Daily Weather History Graph

Search for Another Location

Airport:

Trip Planner

Search our weather history database for the weather conditions in past years. The results will help you decide how hot, cold, wet, or windy it might be!

Date:

Astronomy

Dec. 09, 2012 Rise Set
Actual Time 7:12 AM CST 4:38 PM CST
Civil Twilight 6:42 AM CST 5:09 PM CST
Nautical Twilight 6:08 AM CST 5:42 PM CST
Astronomical Twilight 5:35 AM CST 6:15 PM CST
Moon 2:46 AM CST (12/9) 1:45 PM CST (12/9)
Length of Visible Light 10h 26m
Length of Day
9h 26m
Waning Crescent, 18% of the Moon is Illuminated
Dec 9
Waning Crescent
Dec 13
New
Dec 19
First Quarter
Dec 28
Full
Jan 4
Last Quarter

Hourly Weather History & Observations

Time (CST) Temp. Windchill Dew Point Humidity Pressure Visibility Wind Dir Wind Speed Gust Speed Precip Events Conditions
12:15 AM 40.5 °F 34.1 °F 39.2 °F 95% 29.96 in 2.0 mi ENE 10.4 mph - N/A Rain Light Rain
12:35 AM 40.5 °F 34.6 °F 39.2 °F 95% 29.95 in 2.0 mi ENE 9.2 mph - 0.01 in Rain Rain
12:55 AM 41.0 °F 35.8 °F 39.2 °F 93% 29.95 in 2.5 mi ENE 8.1 mph - N/A   Drizzle
1:15 AM 40.5 °F 34.1 °F 39.2 °F 95% 29.93 in 2.0 mi ENE 10.4 mph - 0.01 in Rain Rain
1:35 AM 40.5 °F 34.1 °F 39.2 °F 95% 29.92 in 2.5 mi ENE 10.4 mph - 0.02 in Rain Light Rain
1:55 AM 40.6 °F 36.0 °F 39.4 °F 95% 29.93 in 3.0 mi East 6.9 mph - 0.02 in   Overcast
2:15 AM 40.8 °F 35.0 °F 39.6 °F 95% 29.92 in 3.0 mi ENE 9.2 mph - N/A Rain Light Rain
2:35 AM 41.0 °F 35.8 °F 39.6 °F 95% 29.91 in 2.5 mi ENE 8.1 mph - 0.01 in Rain Light Rain
2:55 AM 41.0 °F 35.2 °F 39.6 °F 95% 29.90 in 3.0 mi East 9.2 mph - 0.02 in   Light Drizzle
3:15 AM 41.0 °F 35.8 °F 39.6 °F 95% 29.90 in 3.0 mi East 8.1 mph - N/A   Overcast
3:35 AM 41.0 °F 35.8 °F 39.6 °F 95% 29.89 in 2.5 mi East 8.1 mph - N/A   Light Drizzle
3:55 AM 41.0 °F 35.2 °F 39.7 °F 95% 29.88 in 3.0 mi East 9.2 mph - N/A   Overcast
4:15 AM 41.0 °F 35.2 °F 39.6 °F 95% 29.87 in 3.0 mi ENE 9.2 mph - N/A Rain Rain
4:35 AM 41.0 °F 36.4 °F 39.6 °F 95% 29.86 in 3.0 mi East 6.9 mph - N/A   Overcast
4:55 AM 41.0 °F 35.2 °F 39.6 °F 95% 29.86 in 4.0 mi East 9.2 mph - N/A   Overcast
5:15 AM 41.0 °F 35.2 °F 39.7 °F 95% 29.85 in 3.0 mi East 9.2 mph - N/A   Overcast
5:35 AM 41.2 °F 36.0 °F 40.1 °F 96% 29.84 in 3.0 mi East 8.1 mph - N/A   Overcast
5:55 AM 41.4 °F 36.8 °F 40.1 °F 95% 29.85 in 3.0 mi East 6.9 mph - N/A   Overcast
6:15 AM 41.4 °F 39.4 °F 40.1 °F 95% 29.85 in 3.0 mi East 3.5 mph - N/A   Overcast
6:35 AM 41.5 °F 39.6 °F 40.3 °F 95% 29.85 in 3.0 mi East 3.5 mph - N/A   Overcast
6:55 AM 41.5 °F 38.6 °F 40.3 °F 95% 29.85 in 2.5 mi East 4.6 mph - N/A   Overcast
7:15 AM 41.5 °F - 40.5 °F 96% 29.85 in 1.8 mi Calm Calm - N/A   Overcast
7:35 AM 41.9 °F 40.0 °F 40.6 °F 95% 29.85 in 1.5 mi ESE 3.5 mph - N/A   Overcast
7:55 AM 41.9 °F - 40.8 °F 96% 29.85 in 0.5 mi Calm Calm - N/A Fog Fog
8:15 AM 42.1 °F - 41.0 °F 96% 29.85 in 0.8 mi Calm Calm - N/A   Overcast
8:35 AM 42.1 °F - 41.0 °F 96% 29.85 in 0.5 mi Calm Calm - N/A Fog Fog
8:55 AM 42.3 °F - 41.2 °F 96% 29.85 in 0.5 mi Calm Calm - N/A Fog Fog
9:15 AM 42.4 °F - 41.4 °F 96% 29.85 in 0.5 mi Calm Calm - N/A Fog Fog
9:35 AM 43.2 °F - 42.1 °F 96% 29.83 in 0.5 mi Calm Calm - N/A Fog Fog
9:55 AM 43.2 °F - 42.1 °F 96% 29.84 in 0.5 mi Calm Calm - N/A Fog Fog
10:15 AM 43.7 °F - 42.8 °F 97% 29.83 in 1.0 mi Calm Calm - N/A   Overcast
10:35 AM 43.9 °F - 43.0 °F 97% 29.83 in 1.0 mi Calm Calm - N/A   Overcast
10:55 AM 44.6 °F 40.7 °F 43.5 °F 96% 29.84 in 1.0 mi SSW 6.9 mph - N/A   Overcast
11:15 AM 45.0 °F 41.8 °F 43.9 °F 96% 29.83 in 1.2 mi SW 5.8 mph - N/A   Overcast
11:35 AM 45.0 °F 40.6 °F 43.9 °F 96% 29.83 in 1.0 mi SW 8.1 mph - N/A   Overcast
11:55 AM 45.1 °F 41.4 °F 43.9 °F 95% 29.81 in 1.2 mi West 6.9 mph - N/A   Overcast
12:15 PM 45.0 °F 38.9 °F 43.7 °F 95% 29.83 in 1.8 mi WSW 12.7 mph - N/A   Overcast
12:35 PM 45.0 °F 40.6 °F 43.7 °F 95% 29.82 in 1.8 mi West 8.1 mph - N/A   Overcast
12:55 PM 45.0 °F 40.6 °F 43.3 °F 94% 29.81 in 2.5 mi West 8.1 mph - N/A   Overcast
1:15 PM 45.0 °F 40.6 °F 43.2 °F 93% 29.81 in 3.0 mi WSW 8.1 mph - N/A Rain Light Rain
1:35 PM 45.5 °F 42.5 °F 43.3 °F 92% 29.80 in 4.0 mi WSW 5.8 mph - N/A   Overcast
1:55 PM 45.5 °F 41.3 °F 43.2 °F 92% 29.78 in 5.0 mi West 8.1 mph - N/A   Overcast
2:15 PM 46.4 °F 41.9 °F 42.8 °F 87% 29.80 in 4.0 mi West 9.2 mph - N/A   Overcast
2:35 PM 45.5 °F 41.8 °F 43.0 °F 91% 29.80 in 4.0 mi West 6.9 mph - N/A   Overcast
2:55 PM 45.5 °F 42.5 °F 43.2 °F 92% 29.79 in 4.0 mi West 5.8 mph - N/A Rain Rain
3:15 PM 45.5 °F 41.8 °F 42.8 °F 90% 29.80 in 5.0 mi West 6.9 mph - N/A   Overcast
3:35 PM 45.1 °F 40.8 °F 42.4 °F 90% 29.81 in 7.0 mi WNW 8.1 mph - N/A   Overcast
3:55 PM 44.6 °F 37.8 °F 41.9 °F 90% 29.82 in 5.0 mi West 15.0 mph 19.6 mph N/A   Overcast
4:15 PM 44.6 °F 39.7 °F 41.4 °F 88% 29.82 in 7.0 mi WNW 9.2 mph 18.4 mph N/A   Overcast
4:35 PM 44.6 °F 38.8 °F 40.6 °F 86% 29.82 in 10.0 mi WNW 11.5 mph 17.3 mph N/A   Overcast
4:55 PM 44.4 °F 39.5 °F 39.6 °F 83% 29.82 in 10.0 mi WNW 9.2 mph 18.4 mph N/A   Overcast
5:15 PM 44.2 °F 38.4 °F 39.4 °F 83% 29.82 in 10.0 mi WNW 11.5 mph 19.6 mph N/A   Overcast
5:35 PM 43.7 °F 37.3 °F 39.4 °F 85% 29.83 in 10.0 mi NW 12.7 mph 16.1 mph N/A   Overcast
5:55 PM 43.0 °F 36.8 °F 38.5 °F 84% 29.83 in 10.0 mi WNW 11.5 mph 18.4 mph N/A   Overcast
6:15 PM 43.3 °F 38.1 °F 37.9 °F 81% 29.85 in 10.0 mi WNW 9.2 mph 18.4 mph N/A   Overcast
6:35 PM 43.2 °F 39.0 °F 37.8 °F 81% 29.85 in 10.0 mi WNW 6.9 mph - N/A   Overcast
6:55 PM 43.2 °F 39.0 °F 37.9 °F 82% 29.86 in 10.0 mi West 6.9 mph - N/A   Overcast
7:15 PM 43.2 °F 40.5 °F 37.9 °F 82% 29.86 in 10.0 mi West 4.6 mph - N/A   Overcast
7:35 PM 43.0 °F 40.3 °F 37.4 °F 81% 29.86 in 10.0 mi West 4.6 mph - N/A   Overcast
7:55 PM 42.8 °F 38.6 °F 37.4 °F 81% 29.86 in 10.0 mi West 6.9 mph - N/A   Overcast
8:15 PM 43.0 °F 37.2 °F 37.4 °F 81% 29.86 in 10.0 mi West 10.4 mph - N/A   Overcast
8:35 PM 40.8 °F 33.7 °F 34.9 °F 79% 29.86 in 10.0 mi WNW 12.7 mph 20.7 mph N/A   Overcast
8:55 PM 39.2 °F 31.2 °F 33.6 °F 80% 29.87 in 10.0 mi WNW 13.8 mph 20.7 mph N/A   Overcast
9:15 PM 38.8 °F 32.1 °F 32.9 °F 79% 29.88 in 10.0 mi West 10.4 mph 16.1 mph N/A   Overcast
9:35 PM 38.3 °F 30.5 °F 32.0 °F 78% 29.88 in 10.0 mi West 12.7 mph 20.7 mph N/A   Overcast
9:55 PM 37.0 °F 29.8 °F 31.6 °F 81% 29.88 in 10.0 mi West 10.4 mph 19.6 mph N/A   Overcast
10:15 PM 35.4 °F 26.0 °F 30.0 °F 81% 29.89 in 10.0 mi West 15.0 mph 21.9 mph N/A   Overcast
10:35 PM 34.0 °F 24.2 °F 28.9 °F 82% 29.90 in 10.0 mi West 15.0 mph 20.7 mph N/A   Overcast
10:55 PM 32.7 °F 23.4 °F 27.3 °F 81% 29.90 in 10.0 mi West 12.7 mph 21.9 mph N/A   Overcast
11:15 PM 32.2 °F 23.2 °F 27.0 °F 81% 29.90 in 10.0 mi West 11.5 mph 18.4 mph N/A   Overcast
11:35 PM 32.0 °F 22.1 °F 26.2 °F 79% 29.91 in 10.0 mi WNW 13.8 mph 21.9 mph N/A   Overcast
11:55 PM 31.1 °F 20.9 °F 25.2 °F 79% 29.91 in 10.0 mi WNW 13.8 mph 19.6 mph N/A   Overcast